[[{"header":{"parameterUnit":"m.s-1","parameterCategory":1,"la1":30.2991,"la2":30.254,"lo1":-89.0895,"lo2":-89.0444,"dy":0.0017,"dx":0.0017,"nx":28,"ny":28,"refTime":"2025-08-30T21:00:00:Z","depth":0,"parameterNumber":2,"parameterNumberName":"U-component_of_WINDS"},"data":[0,0,0,0,0,0,0,0,0,0,0,0,0,0,0,0,0,0,0,0,0,0,0,0,0,0,0,0,0,0,0,0,0,0,0,0,0,0,0,0,0,0,0,0,0,0,0,0,0,0,0,0,0,0,0,0,0,0,-2.6223,-2.6223,0,-2.6246,-2.6246,-2.6246,-2.6195,-2.6193,-2.6192,-2.619,-2.6214,-2.6216,-2.6219,0,0,0,0,0,0,0,0,0,0,0,0,0,-2.6134,-2.6136,-2.6223,-2.6223,-2.6223,-2.6246,-2.6246,-2.6247,-2.6195,-2.6193,-2.6191,-2.6189,-2.6214,-2.6216,-2.6219,0,0,0,0,0,0,0,0,0,0,0,0,0,-2.6166,-2.6136,-2.6222,-2.62,-2.6198,-2.6246,-2.6246,-2.6247,-2.6196,-2.6193,-2.6191,-2.6188,-2.6213,-2.6216,-2.6219,-2.6289,0,0,-2.6229,-2.6231,0,0,0,0,0,0,0,0,-2.6165,-2.617,-2.6203,-2.6202,-2.62,-2.6215,-2.6224,-2.6261,-2.6196,-2.6197,-2.619,-2.6187,-2.6216,-2.6219,-2.6229,-2.629,-2.6291,-2.6229,-2.6231,-2.6233,-2.6234,0,0,0,0,0,0,0,-2.6162,-2.6168,-2.6232,-2.6204,-2.6202,-2.6189,-2.6191,-2.6231,-2.622,-2.6196,-2.6193,-2.6196,-2.6215,-2.6226,-2.6229,-2.6292,-2.6229,-2.6232,-2.6234,-2.6236,-2.6413,-2.6415,0,0,0,0,0,0,-2.6163,-2.6167,-2.6231,-2.6232,-2.6176,-2.6193,-2.6195,-2.6213,-2.622,-2.6218,-2.6198,-2.6194,-2.6222,-2.6226,-2.623,-2.6314,-2.6233,-2.6236,-2.6238,-2.641,-2.6413,-2.6416,0,0,0,0,0,0,-2.6161,-2.6169,-2.623,-2.6199,-2.6205,-2.6197,-2.6217,-2.6214,-2.6225,-2.6221,-2.6219,-2.6211,-2.622,-2.6225,-2.6275,-2.6314,-2.6237,-2.624,-2.6407,-2.6411,-2.6415,-2.6481,0,0,0,0,0,0,-2.6159,-2.6169,-2.6195,-2.62,-2.6207,-2.6275,-2.622,-2.6217,-2.6231,-2.6225,-2.6233,-2.6232,-2.6218,-2.6271,-2.6278,-2.6317,-2.6243,-2.6403,-2.6409,-2.6414,-2.6475,-2.6487,-2.6497,0,0,0,0,0,-2.6156,-2.6213,-2.6197,-2.6205,-2.624,-2.6277,-2.6282,-2.6265,-2.6234,-2.6261,-2.6258,-2.6232,-2.6308,-2.6276,-2.6284,-2.6325,-2.6401,-2.6407,-2.6413,-2.647,-2.6484,-2.6496,0,0,0,0,0,0,-2.6213,-2.6213,-2.6195,-2.6255,-2.6267,-2.6268,-2.6302,-2.628,-2.63,-2.6294,-2.6273,-2.6275,-2.6329,-2.6331,-2.6296,-2.6393,-2.6349,-2.6357,-2.639,-2.6403,-2.6414,-2.6412,-2.6246,0,0,0,0,0,-2.6233,-2.6263,-2.6261,-2.6314,-2.632,-2.631,-2.6326,-2.6312,-2.6323,-2.6327,-2.6328,-2.634,-2.6367,-2.6385,-2.6409,-2.6475,-2.6476,-2.6507,-2.6517,-2.6526,-2.6534,-2.657,-2.6584,-2.6436,-2.6436,-2.6436,0,0,-2.6273,-2.6277,-2.6297,-2.6325,-2.6333,-2.6365,-2.6315,-2.635,-2.6374,-2.6333,-2.638,-2.6381,-2.6393,-2.6452,-2.6477,-2.6455,-2.6575,-2.6534,-2.6541,-2.6544,-2.6578,-2.6592,-2.6604,-2.6441,-2.644,-2.6439,0,0,-2.6364,-2.637,-2.6415,-2.6423,-2.6435,-2.6428,-2.6439,-2.6444,-2.6443,-2.649,-2.6461,-2.6488,-2.6534,-2.6544,-2.6555,-2.6651,-2.6627,-2.6659,-2.6715,-2.6751,-2.6762,-2.6773,-2.6808,-2.682,-2.6666,-2.6667,-2.6667,0,-2.6414,-2.646,-2.6441,-2.6479,-2.6493,-2.6457,-2.6503,-2.6512,-2.6531,-2.6542,-2.6516,-2.6574,-2.6579,-2.664,-2.6664,-2.6673,-2.6686,-2.6659,-2.6762,-2.6772,-2.6781,-2.6815,-2.6828,-2.6671,-2.667,-2.667,-2.6669,0,-2.6521,-2.6554,-2.6589,-2.6609,-2.6626,-2.6668,-2.6655,-2.6675,-2.666,-2.6656,-2.6705,-2.671,-2.6735,-2.6748,-2.6733,-2.6807,-2.6793,-2.6766,-2.6721,-2.68,-2.6831,-2.6843,-2.6676,-2.6675,-2.6674,-2.6673,0,0,-2.6649,-2.6658,-2.6671,-2.668,-2.669,-2.6716,-2.6756,-2.6781,-2.6799,-2.6813,-2.6847,-2.6887,-2.6862,-2.6874,-2.686,-2.6891,-2.6968,-2.686,-2.686,-2.6881,-2.7051,-2.7073,-2.7088,-2.6952,-2.6954,-2.6956,-2.7051,0,-2.674,-2.681,-2.6794,-2.6863,-2.6893,-2.686,-2.6895,-2.6906,-2.6903,-2.6929,-2.6925,-2.6955,-2.6918,-2.6926,-2.6955,-2.6953,-2.7002,-2.6945,-2.6984,-2.6986,-2.6984,-2.7104,-2.7127,-2.7216,-2.7062,-2.7064,-2.7066,0,-2.6855,-2.6875,-2.6947,-2.6953,-2.6965,-2.6998,-2.7019,-2.7044,-2.7055,-2.7051,-2.7066,-2.7046,-2.7086,-2.7041,-2.7097,-2.7059,-2.7073,-2.7075,-2.7078,-2.7082,-2.7032,-2.7112,-2.7244,-2.7258,-2.7084,-2.7083,-2.7082,0,-2.6943,-2.6987,-2.7036,-2.7045,-2.7053,-2.7076,-2.7081,-2.709,-2.7106,-2.7125,-2.7135,-2.7158,-2.7172,-2.719,-2.7178,-2.7145,-2.7236,-2.7189,-2.7235,-2.7235,-2.7256,-2.7255,-2.7393,-2.7264,-2.7264,-2.7263,-2.7263,0,-2.7047,-2.7093,-2.7076,-2.7106,-2.7157,-2.7138,-2.7189,-2.7189,-2.7197,-2.7228,-2.72,-2.7229,-2.7209,-2.7237,-2.7227,-2.7276,-2.7281,-2.728,-2.7277,-2.7283,-2.7284,-2.7293,-2.7287,-2.7267,-2.7266,-2.7266,-2.7265,0,-2.7154,-2.7144,-2.7196,-2.72,-2.7202,-2.7239,-2.7242,-2.7271,-2.7265,-2.7304,-2.7312,-2.7304,-2.7335,-2.7324,-2.7357,-2.7351,-2.7413,-2.7401,-2.741,-2.7407,-2.7454,-2.745,-2.7604,-2.7623,-2.748,-2.7482,-2.7483,0,-2.7222,-2.7257,-2.7264,-2.7282,-2.7289,-2.7319,-2.7335,-2.7318,-2.7336,-2.7352,-2.7379,-2.7407,-2.743,-2.7481,-2.7478,-2.7504,-2.7493,-2.7545,-2.7497,-2.7502,-2.7496,-2.7494,-2.7498,-2.7555,-2.7557,-2.7558,-2.7559,0,-2.7344,-2.7337,-2.7362,-2.7386,-2.7406,-2.7424,-2.7439,-2.7455,-2.7439,-2.7461,-2.7493,-2.751,-2.7544,-2.7573,-2.7596,-2.76,-2.7578,-2.7575,-2.7587,-2.7594,-2.7598,-2.7598,-2.7437,-2.7571,-2.757,-2.7569,-2.7569,-2.7568,-2.7434,-2.7463,-2.7474,-2.7502,-2.7512,-2.7527,-2.7554,-2.7553,-2.7579,-2.7605,-2.7593,-2.763,-2.7641,-2.7669,-2.7677,-2.7706,-2.7686,-2.7703,-2.7708,-2.7713,-2.7719,-2.7592,-2.771,-2.771,-2.7709,-2.7709,-2.7709,0,-2.7555,-2.756,-2.7587,-2.7609,-2.7632,-2.7608,-2.7624,-2.7645,-2.7677,-2.7689,-2.7712,-2.7749,-2.7777,-2.7777,-2.7803,-2.7826,-2.7817,-2.7834,-2.7832,-2.7834,-2.7735,-2.7723,-2.7841,-2.7841,-2.7841,-2.7841,-2.7841,-2.7841,-2.7621,-2.767,-2.7665,-2.7719,-2.7723,-2.7759,-2.7771,-2.7784,-2.7794,-2.7836,-2.786,-2.7859,-2.7867,-2.7894,-2.7919,-2.7918,-2.7929,-2.7951,-2.7947,-2.7854,-2.7841,-2.7829,-2.7817,-2.7953,-2.7953,-2.8043,-2.8044,-2.8045]},{"header":{"parameterUnit":"m.s-1","parameterCategory":1,"la1":30.2991,"la2":30.254,"lo1":-89.0895,"lo2":-89.0444,"dy":0.0017,"dx":0.0017,"nx":28,"ny":28,"refTime":"2025-08-30T21:00:00:Z","depth":0,"parameterNumber":3,"parameterNumberName":"V-component_of_WINDS"},"data":[0,0,0,0,0,0,0,0,0,0,0,0,0,0,0,0,0,0,0,0,0,0,0,0,0,0,0,0,0,0,0,0,0,0,0,0,0,0,0,0,0,0,0,0,0,0,0,0,0,0,0,0,0,0,0,0,0,0,-3.2451,-3.2451,0,-3.2482,-3.2483,-3.2483,-3.2446,-3.2445,-3.2444,-3.2442,-3.2472,-3.2474,-3.2476,0,0,0,0,0,0,0,0,0,0,0,0,0,-3.2357,-3.2359,-3.2451,-3.2451,-3.2452,-3.2482,-3.2483,-3.2483,-3.2447,-3.2445,-3.2443,-3.2442,-3.2471,-3.2474,-3.2476,0,0,0,0,0,0,0,0,0,0,0,0,0,-3.2394,-3.236,-3.2451,-3.2437,-3.2436,-3.2482,-3.2483,-3.2483,-3.2447,-3.2445,-3.2443,-3.2441,-3.247,-3.2473,-3.2476,-3.2536,0,0,-3.2486,-3.2487,0,0,0,0,0,0,0,0,-3.2392,-3.2398,-3.2439,-3.2438,-3.2437,-3.2458,-3.246,-3.2501,-3.2447,-3.2443,-3.2442,-3.244,-3.2469,-3.2472,-3.2482,-3.2538,-3.2539,-3.2486,-3.2488,-3.2489,-3.249,0,0,0,0,0,0,0,-3.239,-3.2396,-3.2463,-3.244,-3.2439,-3.2429,-3.2432,-3.2468,-3.2467,-3.2443,-3.2441,-3.2445,-3.2468,-3.2479,-3.2483,-3.2539,-3.2486,-3.2489,-3.2491,-3.2492,-3.2646,-3.2648,0,0,0,0,0,0,-3.2389,-3.2394,-3.2462,-3.2464,-3.2409,-3.2432,-3.2436,-3.2454,-3.2466,-3.2466,-3.2447,-3.2443,-3.2475,-3.2479,-3.2483,-3.2555,-3.2489,-3.2492,-3.2494,-3.2644,-3.2646,-3.2649,0,0,0,0,0,0,-3.2387,-3.2395,-3.2461,-3.2429,-3.2436,-3.2436,-3.2457,-3.2455,-3.2467,-3.2469,-3.2468,-3.2459,-3.2474,-3.2479,-3.2524,-3.2556,-3.2493,-3.2496,-3.2641,-3.2644,-3.2648,-3.2699,0,0,0,0,0,0,-3.2385,-3.2395,-3.2418,-3.2429,-3.2438,-3.2502,-3.2459,-3.2457,-3.2472,-3.2468,-3.248,-3.248,-3.2472,-3.2519,-3.2527,-3.2559,-3.2499,-3.2638,-3.2643,-3.2647,-3.2694,-3.2703,-3.2711,0,0,0,0,0,-3.2381,-3.2431,-3.242,-3.2428,-3.2467,-3.2504,-3.2508,-3.2499,-3.2475,-3.2498,-3.25,-3.248,-3.2551,-3.2524,-3.2532,-3.2566,-3.2636,-3.2641,-3.2646,-3.269,-3.2702,-3.2711,0,0,0,0,0,0,-3.2422,-3.2432,-3.242,-3.2474,-3.2489,-3.2497,-3.2526,-3.2512,-3.2532,-3.2527,-3.2514,-3.2517,-3.2565,-3.2569,-3.254,-3.2624,-3.2589,-3.2596,-3.262,-3.2631,-3.2639,-3.2638,-3.2501,0,0,0,0,0,-3.2438,-3.2468,-3.2474,-3.2521,-3.2529,-3.2527,-3.2542,-3.2534,-3.2548,-3.2553,-3.2558,-3.2571,-3.2597,-3.2614,-3.2637,-3.2694,-3.2696,-3.2721,-3.273,-3.2737,-3.2743,-3.2774,-3.2785,-3.2665,-3.2665,-3.2665,0,0,-3.247,-3.2479,-3.2498,-3.253,-3.254,-3.257,-3.2532,-3.2565,-3.2588,-3.2558,-3.2601,-3.2605,-3.2619,-3.267,-3.2693,-3.2676,-3.2777,-3.2743,-3.2749,-3.2751,-3.2781,-3.2792,-3.2802,-3.2669,-3.2668,-3.2668,0,0,-3.2545,-3.2554,-3.2595,-3.2606,-3.2623,-3.2621,-3.263,-3.2642,-3.2643,-3.2686,-3.2665,-3.2691,-3.2734,-3.2746,-3.2757,-3.2836,-3.2819,-3.2844,-3.2889,-3.2919,-3.2929,-3.2937,-3.2966,-3.2977,-3.285,-3.285,-3.285,0,-3.2583,-3.2628,-3.2618,-3.2654,-3.2668,-3.2644,-3.2685,-3.2696,-3.2718,-3.2729,-3.2709,-3.2764,-3.2771,-3.2825,-3.2845,-3.2854,-3.2865,-3.2843,-3.2928,-3.2937,-3.2944,-3.2972,-3.2983,-3.2853,-3.2853,-3.2852,-3.2852,0,-3.2674,-3.2706,-3.2737,-3.2761,-3.2779,-3.2817,-3.2812,-3.2831,-3.2821,-3.2821,-3.2865,-3.2874,-3.2899,-3.2911,-3.2901,-3.2963,-3.2952,-3.2931,-3.2895,-3.2959,-3.2985,-3.2995,-3.2858,-3.2856,-3.2856,-3.2855,0,0,-3.2776,-3.2794,-3.2806,-3.2817,-3.2833,-3.2857,-3.2893,-3.2919,-3.2936,-3.2952,-3.2983,-3.302,-3.3001,-3.3014,-3.3005,-3.3031,-3.3094,-3.3006,-3.3006,-3.3023,-3.3165,-3.3182,-3.3194,-3.3082,-3.3084,-3.3086,-3.3164,0,-3.2852,-3.2917,-3.2909,-3.2971,-3.3001,-3.2978,-3.301,-3.3023,-3.3023,-3.3048,-3.3048,-3.3076,-3.3047,-3.3055,-3.308,-3.3081,-3.3123,-3.3075,-3.3111,-3.3112,-3.3109,-3.3207,-3.3225,-3.3299,-3.3174,-3.3175,-3.3176,0,-3.2949,-3.297,-3.3036,-3.3048,-3.306,-3.3089,-3.3112,-3.3135,-3.3149,-3.3148,-3.3163,-3.3149,-3.3186,-3.3149,-3.3199,-3.3167,-3.318,-3.3183,-3.3186,-3.319,-3.3149,-3.3215,-3.3322,-3.3333,-3.3192,-3.3191,-3.319,0,-3.3018,-3.3063,-3.3108,-3.3118,-3.3132,-3.3154,-3.316,-3.3172,-3.3188,-3.3208,-3.3218,-3.3241,-3.3254,-3.3272,-3.3265,-3.3238,-3.3316,-3.3279,-3.3316,-3.3317,-3.3334,-3.3334,-3.3446,-3.3342,-3.3341,-3.3341,-3.3341,0,-3.3104,-3.3145,-3.3139,-3.3167,-3.3213,-3.3202,-3.3247,-3.3251,-3.3262,-3.329,-3.327,-3.3297,-3.3285,-3.331,-3.3305,-3.3347,-3.3353,-3.3353,-3.3351,-3.3355,-3.3355,-3.3365,-3.336,-3.3344,-3.3343,-3.3343,-3.3342,0,-3.319,-3.3187,-3.3235,-3.3245,-3.3249,-3.3282,-3.329,-3.3316,-3.3315,-3.3351,-3.3359,-3.3357,-3.3386,-3.3381,-3.3412,-3.3408,-3.3462,-3.3453,-3.3458,-3.3456,-3.3494,-3.3491,-3.3618,-3.3634,-3.3518,-3.3519,-3.352,0,-3.3245,-3.3277,-3.3291,-3.3309,-3.3318,-3.3346,-3.3363,-3.3353,-3.3371,-3.339,-3.3413,-3.3441,-3.3462,-3.3509,-3.3511,-3.3535,-3.3527,-3.3569,-3.353,-3.3534,-3.3529,-3.3528,-3.3531,-3.3578,-3.3579,-3.358,-3.3581,0,-3.3345,-3.3342,-3.3367,-3.3392,-3.3413,-3.3432,-3.3449,-3.3464,-3.3456,-3.3477,-3.3507,-3.3524,-3.3556,-3.3584,-3.3606,-3.3612,-3.3596,-3.3593,-3.3603,-3.3609,-3.3611,-3.3611,-3.348,-3.3591,-3.359,-3.3589,-3.3588,-3.3588,-3.3418,-3.3445,-3.3459,-3.3488,-3.35,-3.3516,-3.3542,-3.3544,-3.357,-3.3596,-3.3589,-3.3623,-3.3636,-3.3664,-3.3673,-3.3699,-3.3683,-3.3697,-3.3701,-3.3705,-3.3711,-3.3606,-3.3703,-3.3702,-3.3702,-3.3702,-3.3702,0,-3.3517,-3.3525,-3.3552,-3.3577,-3.36,-3.3582,-3.36,-3.362,-3.3651,-3.3665,-3.3686,-3.3721,-3.3747,-3.3751,-3.3776,-3.3796,-3.3789,-3.3803,-3.3802,-3.3804,-3.3723,-3.3712,-3.3809,-3.3809,-3.3808,-3.3808,-3.3808,-3.3808,-3.3572,-3.3617,-3.3616,-3.3667,-3.3675,-3.3709,-3.3721,-3.3736,-3.3747,-3.3787,-3.3809,-3.3811,-3.3821,-3.3847,-3.387,-3.387,-3.3881,-3.3898,-3.3896,-3.382,-3.381,-3.3799,-3.3789,-3.39,-3.39,-3.3975,-3.3975,-3.3976]}]]